SCP
0 0 0 0 0 0 0 0 0 0 0 0 0 0 0 0 0 0 0 0 0 0
0 0 0 0 0 0 0 0 0 0 0 0 0 0 0 0 0 0 0 0 0 0
0 0 0 0 0 0 0 0 0 0 0 0 0 0 0 0 0 0 0 0 0 0
0 0 0 0 0 0 0 0 0 0 0 0 0 0 0 0 0 0 0 0 0 0
0 0 0 0 0 0 0 0 0 0 0 0 0 0 0 0 0 0 0 0 0 0
0 0 0 0 0 0 0 0 0 0 0 0 0 0 0 0 0 0 0 0 0 0
0 0 0 0 0 0 0 0 0 0 0 0 0 0 0 0 0 0 0 0 0 0
0 0 0 0 0 0 0 0 0 0 0 0 0 0 0 0 0 0 0 0 0 0
0 0 0 0 0 0 0 0 0 0 0 0 0 0 0 0 0 0 0 0 0 0
0 0 0 0 0 0 0 0 0 0 0 0 0 0 0 0 0 0 0 0 0 0
0 0 0 0 0 0 0 0 0 0 0 0 0 0 0 0 0 0 0 0 0 0
0 0 0 0 0 0 0 0 0 0 0 0 0 0 0 0 0 0 0 0 0 0
-0 -0 0 0 0 0 0 0 0 0 0 0 0 0 0 0 0 0 0 0 0 0
0 0 0 0 0 0 0 0 0 0 0 0 0 0 0 0 0 0 0 0 0 0
Wind_Speed_500mb
22 27 33 37 41 43 43 43 45 50 54 56 60 66 69 76 78 81 82 87 89 92
18 20 23 25 28 31 34 37 39 42 46 51 55 61 68 75 81 83 83 84 85 87
11 10 9 11 14 19 24 28 33 36 40 46 50 57 65 74 80 85 90 91 90 87
2 3 7 12 18 24 31 34 39 42 45 49 52 53 58 66 73 79 82 85 85 85
9 13 18 22 28 33 40 46 49 53 56 58 61 61 63 64 65 71 74 78 82 82
22 26 29 33 38 41 45 49 55 62 66 67 67 66 66 65 66 70 72 71 73 74
28 33 39 44 46 49 51 56 59 63 66 68 68 68 68 67 68 72 73 71 71 72
28 33 37 42 48 52 55 57 60 62 64 66 68 69 69 68 70 73 75 74 75 76
33 35 38 42 46 50 54 57 60 61 63 64 65 64 66 67 70 72 75 79 76 74
44 46 48 51 54 56 58 61 64 66 65 66 62 61 64 65 71 74 75 75 73 70
48 50 52 54 57 59 62 64 66 68 70 74 68 63 63 62 68 74 74 73 68 66
49 51 52 54 55 57 61 62 64 68 69 71 75 69 63 61 65 70 71 68 65 66
48 52 56 57 58 59 61 64 64 66 66 67 67 63 68 64 61 68 70 68 63 64
49 53 56 59 59 63 65 66 68 70 69 69 67 65 58 55 60 66 67 69 66 64
Wind_Direction_500mb
241 248 255 261 264 267 269 266 266 266 268 270 270 268 273 274 275 274 273 274 274 275
223 234 242 245 251 257 263 268 267 264 263 264 263 265 269 271 273 273 274 273 273 275
177 187 211 243 262 271 275 279 279 276 272 269 266 264 265 268 270 271 273 274 272 272
127 291 297 296 294 292 293 294 294 294 291 288 284 278 273 268 267 268 271 275 276 274
296 286 286 288 291 292 294 294 293 291 291 290 287 285 280 276 271 269 268 270 273 273
300 297 298 296 294 295 295 294 292 292 292 292 289 284 281 279 277 274 273 272 271 272
299 297 297 297 297 297 297 297 296 296 296 295 293 289 287 285 281 278 276 275 272 272
314 309 304 302 301 301 300 299 298 296 294 293 292 293 292 288 284 280 280 277 275 274
324 318 315 313 311 310 309 306 304 301 298 296 293 291 287 284 280 278 278 278 278 276
327 324 322 321 319 316 314 313 312 309 304 299 295 290 285 281 280 279 278 277 277 276
326 325 323 321 321 318 316 313 310 309 308 304 300 294 287 281 277 278 278 279 279 276
324 325 325 324 323 320 317 314 311 308 307 307 306 301 292 284 282 281 282 281 277 275
323 323 323 322 323 321 319 317 315 311 310 307 306 307 304 295 286 284 285 284 279 276
316 316 317 317 319 318 317 316 315 312 311 309 308 306 302 299 293 290 287 284 283 280
Wind_Speed_850mb
22 27 33 37 41 43 43 43 45 50 54 56 60 66 69 76 78 81 82 87 89 92
18 20 23 25 28 31 34 37 39 42 46 51 55 61 68 75 81 83 83 84 85 87
11 10 9 11 14 19 24 28 33 36 40 46 50 57 65 74 80 85 90 91 90 87
2 3 7 12 18 24 31 34 39 42 45 49 52 53 58 66 73 79 82 85 85 85
9 13 18 22 28 33 40 46 49 53 56 58 61 61 63 64 65 71 74 78 82 82
22 26 29 33 38 41 45 49 55 62 66 67 67 66 66 65 66 70 72 71 73 74
28 33 39 44 46 49 51 56 59 63 66 68 68 68 68 67 68 72 73 71 71 72
28 33 37 42 48 52 55 57 60 62 64 66 68 69 69 68 70 73 75 74 75 76
33 35 38 42 46 50 54 57 60 61 63 64 65 64 66 67 70 72 75 79 76 74
44 46 48 51 54 56 58 61 64 66 65 66 62 61 64 65 71 74 75 75 73 70
48 50 52 54 57 59 62 64 66 68 70 74 68 63 63 62 68 74 74 73 68 66
49 51 52 54 55 57 61 62 64 68 69 71 75 69 63 61 65 70 71 68 65 66
48 52 56 57 58 59 61 64 64 66 66 67 67 63 68 64 61 68 70 68 63 64
49 53 56 59 59 63 65 66 68 70 69 69 67 65 58 55 60 66 67 69 66 64
Wind_Direction_850mb
241 248 255 261 264 267 269 266 266 266 268 270 270 268 273 274 275 274 273 274 274 275
223 234 242 245 251 257 263 268 267 264 263 264 263 265 269 271 273 273 274 273 273 275
177 187 211 243 262 271 275 279 279 276 272 269 266 264 265 268 270 271 273 274 272 272
127 291 297 296 294 292 293 294 294 294 291 288 284 278 273 268 267 268 271 275 276 274
296 286 286 288 291 292 294 294 293 291 291 290 287 285 280 276 271 269 268 270 273 273
300 297 298 296 294 295 295 294 292 292 292 292 289 284 281 279 277 274 273 272 271 272
299 297 297 297 297 297 297 297 296 296 296 295 293 289 287 285 281 278 276 275 272 272
314 309 304 302 301 301 300 299 298 296 294 293 292 293 292 288 284 280 280 277 275 274
324 318 315 313 311 310 309 306 304 301 298 296 293 291 287 284 280 278 278 278 278 276
327 324 322 321 319 316 314 313 312 309 304 299 295 290 285 281 280 279 278 277 277 276
326 325 323 321 321 318 316 313 310 309 308 304 300 294 287 281 277 278 278 279 279 276
324 325 325 324 323 320 317 314 311 308 307 307 306 301 292 284 282 281 282 281 277 275
323 323 323 322 323 321 319 317 315 311 310 307 306 307 304 295 286 284 285 284 279 276
316 316 317 317 319 318 317 316 315 312 311 309 308 306 302 299 293 290 287 284 283 280